QPF
0.00 0.00 0.00 0.00 0.00 0.00 0.00 0.00 0.00 0.00 0.00 0.00 0.00 0.00 0.00 0.00 0.00 0.00 0.00 0.00 0.00 0.00 0.00 0.00 0.00 0.00 0.00 0.00 0.00 0.00 0.00 0.00 0.00 0.00 0.00 0.01 0.00 0.00 0.00 0.00 0.00 0.02 0.02 0.01 0.00
0.00 0.00 0.00 0.00 0.00 0.00 0.00 0.00 0.00 0.00 0.00 0.00 0.00 0.00 0.00 0.00 0.00 0.00 0.00 0.00 0.00 0.00 0.00 0.00 0.00 0.00 0.00 0.00 0.00 0.00 0.00 0.00 0.00 0.00 0.00 0.00 0.00 0.00 0.00 0.00 0.00 0.00 0.01 0.02 0.00
0.00 0.00 0.00 0.00 0.00 0.00 0.00 0.00 0.00 0.00 0.00 0.00 0.00 0.00 0.00 0.00 0.00 0.00 0.00 0.00 0.00 0.00 0.00 0.00 0.00 0.00 0.00 0.00 0.00 0.00 0.00 0.00 0.00 0.00 0.00 0.00 0.00 0.01 0.00 0.00 0.00 0.00 0.00 0.00 0.00
0.00 0.00 0.00 0.00 0.00 0.00 0.00 0.00 0.00 0.00 0.00 0.00 0.00 0.00 0.00 0.00 0.00 0.00 0.00 0.00 0.00 0.00 0.00 0.00 0.00 0.00 0.00 0.00 0.00 0.00 0.00 0.00 0.00 0.00 0.00 0.00 0.00 0.01 0.01 0.01 0.00 0.00 0.00 0.00 0.00
0.00 0.00 0.00 0.00 0.00 0.00 0.00 0.00 0.00 0.00 0.00 0.00 0.00 0.00 0.00 0.00 0.00 0.00 0.00 0.00 0.00 0.00 0.00 0.01 0.01 0.00 0.00 0.00 0.00 0.00 0.00 0.00 0.00 0.00 0.00 0.00 0.00 0.01 0.00 0.01 0.00 0.00 0.00 0.00 0.00
0.00 0.00 0.00 0.00 0.00 0.00 0.00 0.00 0.00 0.00 0.00 0.00 0.00 0.00 0.00 0.00 0.00 0.00 0.00 0.00 0.00 0.01 0.05 0.03 0.00 0.00 0.00 0.00 0.00 0.00 0.00 0.00 0.00 0.00 0.00 0.00 0.00 0.00 0.00 0.01 0.00 0.00 0.00 0.00 0.00
0.00 0.00 0.00 0.00 0.00 0.00 0.00 0.00 0.00 0.00 0.00 0.00 0.00 0.00 0.00 0.00 0.00 0.00 0.00 0.00 0.00 0.00 0.02 0.00 0.00 0.00 0.00 0.00 0.00 0.00 0.00 0.00 0.00 0.00 0.00 0.00 0.00 0.00 0.00 0.00 0.00 0.00 0.00 0.00 0.00
0.00 0.00 0.00 0.00 0.00 0.00 0.00 0.00 0.00 0.00 0.00 0.00 0.00 0.00 0.00 0.00 0.00 0.00 0.00 0.00 0.00 0.00 0.00 0.00 0.00 0.00 0.00 0.00 0.00 0.00 0.00 0.00 0.00 0.00 0.00 0.00 0.00 0.00 0.00 0.00 0.00 0.00 0.00 0.00 0.00
0.00 0.00 0.00 0.00 0.00 0.00 0.00 0.00 0.00 0.00 0.00 0.00 0.00 0.00 0.00 0.00 0.00 0.00 0.00 0.00 0.00 0.00 0.00 0.00 0.00 0.00 0.00 0.00 0.00 0.00 0.00 0.00 0.00 0.00 0.00 0.00 0.00 0.00 0.00 0.00 0.00 0.00 0.00 0.00 0.00
0.00 0.00 0.00 0.00 0.00 0.00 0.00 0.00 0.00 0.00 0.00 0.00 0.00 0.00 0.00 0.00 0.00 0.00 0.00 0.00 0.00 0.00 0.00 0.00 0.00 0.00 0.00 0.00 0.00 0.00 0.00 0.00 0.00 0.00 0.00 0.00 0.00 0.00 0.00 0.00 0.00 0.00 0.00 0.00 0.00
0.00 0.00 0.00 0.00 0.00 0.00 0.00 0.00 0.00 0.00 0.00 0.00 0.00 0.00 0.00 0.00 0.00 0.00 0.00 0.00 0.00 0.00 0.00 0.00 0.00 0.00 0.00 0.00 0.00 0.00 0.00 0.00 0.00 0.00 0.00 0.00 0.00 0.00 0.00 0.00 0.00 0.00 0.00 0.00 0.00
0.00 0.00 0.00 0.00 0.00 0.00 0.00 0.00 0.00 0.00 0.00 0.00 0.00 0.00 0.00 0.00 0.00 0.00 0.00 0.00 0.00 0.00 0.00 0.00 0.00 0.00 0.00 0.00 0.00 0.00 0.00 0.00 0.00 0.00 0.00 0.00 0.00 0.00 0.00 0.00 0.00 0.00 0.00 0.00 0.00
0.00 0.00 0.00 0.00 0.00 0.00 0.00 0.00 0.00 0.00 0.00 0.00 0.00 0.00 0.00 0.00 0.00 0.00 0.00 0.00 0.00 0.00 0.00 0.00 0.00 0.00 0.00 0.00 0.00 0.00 0.00 0.00 0.00 0.00 0.00 0.00 0.00 0.00 0.00 0.00 0.00 0.00 0.00 0.00 0.00
0.00 0.00 0.00 0.00 0.00 0.00 0.00 0.00 0.00 0.00 0.00 0.00 0.00 0.00 0.00 0.00 0.00 0.00 0.00 0.00 0.00 0.00 0.00 0.00 0.00 0.00 0.00 0.00 0.00 0.00 0.00 0.00 0.00 0.00 0.00 0.00 0.00 0.00 0.00 0.00 0.00 0.00 0.00 0.00 0.00
0.00 0.00 0.00 0.00 0.00 0.00 0.00 0.00 0.00 0.00 0.00 0.00 0.00 0.00 0.00 0.00 0.00 0.00 0.00 0.00 0.00 0.00 0.00 0.00 0.00 0.00 0.00 0.00 0.00 0.00 0.00 0.00 0.00 0.00 0.00 0.00 0.00 0.00 0.00 0.00 0.00 0.00 0.00 0.00 0.00
0.00 0.00 0.00 0.00 0.00 0.00 0.00 0.00 0.00 0.00 0.00 0.00 0.00 0.00 0.00 0.00 0.00 0.00 0.00 0.00 0.00 0.00 0.00 0.00 0.00 0.00 0.00 0.00 0.00 0.00 0.00 0.00 0.00 0.00 0.00 0.00 0.00 0.00 0.00 0.00 0.00 0.00 0.00 0.00 0.00
0.00 0.00 0.00 0.00 0.00 0.00 0.00 0.00 0.00 0.00 0.00 0.00 0.00 0.00 0.00 0.00 0.00 0.00 0.00 0.00 0.00 0.00 0.00 0.00 0.00 0.00 0.00 0.00 0.00 0.00 0.00 0.00 0.00 0.00 0.00 0.00 0.00 0.00 0.00 0.00 0.00 0.00 0.00 0.00 0.00
0.00 0.00 0.00 0.00 0.00 0.00 0.00 0.00 0.00 0.00 0.00 0.00 0.00 0.00 0.00 0.00 0.00 0.00 0.00 0.00 0.00 0.00 0.00 0.00 0.00 0.00 0.00 0.00 0.00 0.00 0.00 0.00 0.00 0.00 0.00 0.00 0.00 0.00 0.00 0.00 0.00 0.00 0.00 0.00 0.00
0.00 0.00 0.00 0.00 0.00 0.00 0.00 0.00 0.00 0.00 0.00 0.00 0.00 0.00 0.00 0.00 0.00 0.00 0.00 0.00 0.00 0.00 0.00 0.00 0.00 0.00 0.00 0.00 0.00 0.00 0.00 0.00 0.00 0.00 0.00 0.00 0.00 0.00 0.00 0.00 0.00 0.00 0.00 0.00 0.00
0.00 0.00 0.00 0.00 0.00 0.00 0.00 0.00 0.00 0.00 0.00 0.00 0.00 0.00 0.00 0.00 0.00 0.00 0.00 0.00 0.00 0.00 0.00 0.00 0.00 0.00 0.00 0.00 0.00 0.00 0.00 0.00 0.00 0.00 0.00 0.00 0.00 0.00 0.00 0.00 0.00 0.00 0.00 0.00 0.00
0.00 0.00 0.00 0.00 0.00 0.00 0.00 0.00 0.00 0.00 0.00 0.00 0.00 0.00 0.00 0.00 0.00 0.00 0.00 0.00 0.00 0.00 0.00 0.00 0.00 0.00 0.00 0.00 0.00 0.00 0.00 0.00 0.00 0.00 0.00 0.00 0.00 0.00 0.00 0.00 0.00 0.00 0.00 0.00 0.00
0.00 0.00 0.00 0.00 0.00 0.00 0.00 0.00 0.00 0.00 0.00 0.00 0.00 0.00 0.00 0.00 0.00 0.00 0.00 0.00 0.00 0.00 0.00 0.00 0.00 0.00 0.00 0.00 0.00 0.00 0.00 0.00 0.00 0.00 0.00 0.00 0.00 0.00 0.00 0.00 0.00 0.00 0.00 0.00 0.00
0.00 0.00 0.00 0.00 0.00 0.00 0.00 0.00 0.00 0.00 0.00 0.00 0.00 0.00 0.00 0.00 0.00 0.00 0.00 0.00 0.00 0.00 0.00 0.00 0.00 0.00 0.00 0.00 0.00 0.00 0.00 0.00 0.00 0.00 0.00 0.00 0.00 0.00 0.00 0.00 0.00 0.00 0.00 0.00 0.00
0.00 0.00 0.00 0.00 0.00 0.00 0.00 0.00 0.00 0.00 0.00 0.00 0.00 0.00 0.00 0.00 0.00 0.00 0.00 0.00 0.00 0.00 0.00 0.00 0.00 0.00 0.00 0.00 0.00 0.00 0.00 0.00 0.00 0.00 0.00 0.00 0.00 0.00 0.00 0.00 0.00 0.00 0.00 0.00 0.00
0.00 0.00 0.00 0.00 0.00 0.00 0.00 0.00 0.00 0.00 0.00 0.00 0.00 0.00 0.00 0.00 0.00 0.00 0.00 0.00 0.00 0.00 0.00 0.00 0.00 0.00 0.00 0.00 0.00 0.00 0.00 0.00 0.00 0.00 0.00 0.00 0.00 0.00 0.00 0.00 0.00 0.00 0.00 0.00 0.00
0.00 0.00 0.00 0.00 0.00 0.00 0.00 0.00 0.00 0.00 0.00 0.00 0.00 0.00 0.00 0.00 0.00 0.00 0.00 0.00 0.00 0.00 0.00 0.00 0.00 0.00 0.00 0.00 0.00 0.00 0.00 0.00 0.00 0.00 0.00 0.00 0.00 0.00 0.00 0.00 0.00 0.00 0.00 0.00 0.00
0.00 0.00 0.00 0.00 0.00 0.00 0.00 0.00 0.00 0.00 0.00 0.00 0.00 0.00 0.00 0.00 0.00 0.00 0.00 0.00 0.00 0.00 0.00 0.00 0.00 0.00 0.00 0.00 0.00 0.00 0.00 0.00 0.00 0.00 0.00 0.00 0.00 0.00 0.00 0.00 0.00 0.00 0.00 0.00 0.00
MSLP
1012.84 1012.58 1012.41 1012.23 1011.96 1011.63 1011.41 1011.15 1010.88 1010.69 1010.46 1010.18 1009.81 1009.76 1009.60 1009.22 1009.07 1009.03 1007.70 1004.70 1004.52 1004.32 1004.79 1005.65 1006.35 1006.51 1006.90 1007.44 1007.90 1008.24 1008.60 1008.49 1007.68 1006.75 1005.91 1005.48 1005.29 1005.19 1005.56 1005.87 1006.05 1006.46 1007.55 1007.88 1009.29
1012.76 1012.48 1012.23 1012.09 1011.90 1011.55 1011.21 1010.97 1010.71 1010.57 1010.41 1010.19 1009.92 1009.87 1009.45 1009.15 1008.87 1007.50 1003.93 1003.82 1004.16 1004.44 1005.04 1005.63 1006.16 1006.45 1007.09 1007.46 1007.85 1008.08 1008.12 1007.26 1006.27 1005.82 1005.52 1005.24 1005.25 1005.32 1005.89 1006.35 1006.68 1007.00 1007.85 1008.22 1009.35
1012.40 1012.21 1011.97 1011.76 1011.64 1011.39 1011.08 1010.75 1010.44 1010.36 1010.25 1010.04 1009.86 1009.76 1009.36 1009.22 1008.39 1004.33 1002.95 1003.74 1004.35 1005.05 1005.11 1005.28 1005.95 1006.60 1007.35 1007.71 1007.76 1007.61 1007.11 1006.07 1005.30 1004.78 1004.77 1004.90 1004.85 1005.22 1006.00 1006.64 1006.56 1007.01 1008.07 1008.67 1009.44
1012.12 1011.85 1011.60 1011.44 1011.26 1011.08 1010.84 1010.57 1010.19 1010.08 1010.04 1009.85 1009.67 1009.56 1009.36 1009.28 1006.50 1003.07 1002.90 1003.77 1004.52 1005.05 1005.13 1005.26 1006.00 1006.68 1007.16 1007.48 1007.40 1007.47 1006.40 1006.06 1005.00 1004.21 1004.23 1004.49 1004.38 1004.86 1005.31 1005.63 1005.94 1006.67 1007.20 1008.20 1009.17
1011.84 1011.58 1011.30 1011.03 1010.85 1010.74 1010.61 1010.37 1010.05 1009.90 1009.90 1009.69 1009.50 1009.32 1009.27 1008.18 1004.61 1002.79 1003.15 1004.22 1005.03 1005.40 1005.43 1005.69 1006.01 1006.48 1006.65 1007.06 1007.23 1007.08 1005.94 1005.25 1004.31 1003.90 1003.74 1003.70 1003.88 1004.18 1004.51 1005.30 1005.90 1006.51 1007.38 1008.09 1009.01
1011.50 1011.17 1010.87 1010.63 1010.45 1010.37 1010.26 1010.12 1009.86 1009.74 1009.71 1009.50 1009.27 1009.25 1008.80 1006.37 1003.02 1002.91 1003.56 1004.88 1005.16 1005.38 1005.26 1005.72 1005.55 1005.96 1006.37 1006.62 1006.63 1006.25 1005.62 1004.82 1003.86 1003.37 1003.27 1003.29 1003.98 1004.11 1004.17 1004.83 1005.77 1006.55 1007.08 1007.96 1008.36
1011.20 1010.77 1010.46 1010.20 1009.99 1009.93 1009.91 1009.82 1009.63 1009.54 1009.43 1009.29 1008.99 1008.94 1007.88 1004.50 1003.16 1003.53 1004.15 1004.89 1005.28 1005.24 1005.42 1005.70 1005.57 1005.87 1006.19 1006.28 1005.98 1005.83 1005.53 1004.50 1003.88 1003.29 1003.37 1003.38 1004.19 1004.22 1004.41 1004.98 1005.62 1006.56 1007.19 1007.68 1008.32
1010.88 1010.44 1010.10 1009.86 1009.65 1009.57 1009.58 1009.50 1009.36 1009.19 1009.05 1008.93 1008.73 1008.50 1006.10 1003.58 1003.28 1004.02 1004.45 1004.98 1005.27 1005.34 1005.66 1005.77 1005.58 1006.00 1006.16 1006.20 1005.97 1005.81 1005.55 1005.05 1003.80 1003.13 1003.24 1003.52 1003.87 1003.80 1004.18 1004.95 1005.56 1006.17 1007.13 1007.67 1008.23
1010.70 1010.17 1009.81 1009.57 1009.36 1009.26 1009.29 1009.23 1009.07 1008.89 1008.76 1008.66 1008.66 1008.02 1005.26 1003.89 1003.96 1004.30 1004.45 1004.95 1005.29 1005.35 1005.46 1005.52 1005.66 1006.16 1006.33 1006.17 1006.11 1006.06 1005.62 1005.10 1004.05 1003.34 1003.31 1003.63 1003.68 1003.50 1004.06 1004.87 1005.51 1005.95 1006.50 1007.24 1007.85
1010.54 1009.99 1009.55 1009.37 1009.18 1009.09 1009.02 1008.98 1008.85 1008.75 1008.69 1008.57 1008.04 1007.50 1004.94 1003.40 1003.35 1004.09 1004.58 1004.87 1005.49 1005.80 1005.83 1006.06 1006.47 1006.46 1006.28 1006.27 1006.08 1005.91 1005.54 1005.06 1004.61 1003.83 1003.46 1003.64 1003.53 1003.84 1004.30 1004.55 1005.24 1005.66 1006.12 1006.64 1007.22
1010.27 1009.80 1009.39 1009.14 1008.96 1008.86 1008.69 1008.75 1008.91 1008.64 1007.97 1006.47 1006.07 1005.10 1003.75 1002.76 1002.78 1003.96 1004.28 1004.87 1005.59 1006.27 1006.76 1006.75 1006.92 1006.50 1005.51 1004.68 1005.56 1005.84 1005.62 1005.28 1004.37 1003.69 1003.78 1003.48 1003.30 1003.35 1003.96 1004.55 1004.94 1005.42 1005.71 1005.96 1006.12
1010.00 1009.49 1009.16 1008.94 1008.76 1008.67 1008.72 1007.94 1006.56 1006.18 1006.26 1005.20 1005.16 1004.61 1003.83 1003.07 1003.13 1003.82 1004.11 1004.79 1005.60 1006.38 1006.96 1007.35 1006.74 1005.30 1005.49 1005.62 1005.91 1004.96 1005.37 1004.86 1004.14 1003.64 1003.84 1003.52 1003.20 1002.82 1003.23 1003.37 1003.56 1004.15 1004.93 1005.27 1005.73
1009.78 1009.24 1008.93 1008.79 1008.73 1008.75 1008.03 1006.48 1005.45 1005.53 1006.01 1004.74 1004.39 1003.83 1003.13 1002.99 1002.80 1003.08 1003.62 1004.16 1004.76 1005.98 1006.48 1006.69 1005.31 1004.94 1005.28 1005.09 1005.66 1005.36 1004.93 1004.27 1004.30 1003.94 1003.95 1004.01 1003.17 1002.50 1002.53 1002.51 1003.01 1003.42 1003.89 1004.36 1004.74
1009.50 1008.94 1008.66 1008.59 1009.14 1007.80 1006.88 1005.29 1005.29 1005.52 1005.78 1004.58 1003.78 1002.62 1002.64 1002.45 1002.27 1001.79 1002.27 1003.01 1004.18 1004.77 1005.55 1005.92 1005.10 1004.95 1005.20 1005.08 1005.19 1004.87 1004.05 1004.20 1004.48 1004.91 1004.98 1004.66 1004.64 1002.67 1002.36 1002.28 1002.28 1002.50 1002.96 1003.31 1003.87
1009.18 1008.64 1008.30 1008.32 1007.80 1007.00 1005.37 1005.12 1004.95 1005.27 1005.03 1003.69 1002.86 1001.97 1002.25 1002.36 1002.14 1001.73 1002.33 1002.51 1003.42 1004.41 1005.36 1004.54 1004.45 1004.81 1004.70 1004.09 1004.68 1003.99 1003.80 1004.62 1004.74 1005.29 1005.62 1005.33 1005.50 1002.92 1002.49 1002.53 1001.88 1001.57 1001.86 1002.14 1002.59
1008.51 1008.25 1008.01 1008.00 1007.78 1005.20 1004.54 1004.68 1004.96 1005.65 1004.46 1003.03 1002.37 1002.32 1002.61 1002.42 1002.31 1002.11 1002.08 1002.26 1003.16 1004.07 1004.57 1004.38 1004.12 1004.08 1003.69 1003.56 1003.86 1003.74 1004.56 1004.97 1005.72 1006.16 1006.53 1005.44 1005.29 1003.30 1002.40 1001.60 1001.01 1000.83 1000.79 1000.92 1001.46
1007.58 1007.44 1007.70 1006.67 1005.79 1004.50 1004.37 1004.62 1005.80 1005.11 1004.22 1003.74 1003.26 1003.07 1003.09 1003.43 1003.19 1003.24 1003.31 1003.50 1004.09 1004.85 1005.22 1004.75 1004.01 1003.52 1003.19 1003.47 1003.70 1004.43 1005.81 1006.50 1007.07 1007.40 1006.88 1005.73 1005.39 1003.24 1002.17 1001.12 1000.76 1000.00 999.88 1000.03 1000.25
1006.49 1006.19 1006.26 1005.87 1005.02 1004.62 1004.65 1005.53 1005.72 1004.99 1004.33 1003.98 1004.01 1003.90 1004.43 1004.64 1004.67 1004.66 1004.76 1005.30 1005.28 1005.46 1006.20 1005.82 1004.49 1003.65 1003.26 1003.47 1004.02 1004.95 1005.98 1007.41 1008.19 1008.55 1007.67 1006.25 1004.90 1003.03 1002.26 1000.94 1000.04 1000.13 999.51 999.68 1000.08
1005.94 1006.00 1006.00 1004.93 1004.75 1005.18 1005.51 1006.49 1005.74 1005.08 1004.39 1004.21 1004.34 1005.14 1005.60 1005.53 1005.64 1005.65 1006.42 1006.68 1006.35 1006.03 1006.39 1006.33 1005.29 1004.07 1003.65 1003.67 1004.15 1005.15 1006.25 1007.17 1008.34 1009.06 1008.65 1006.73 1004.86 1003.45 1002.04 1001.16 1000.72 1000.59 1000.57 1000.87 1000.55
1006.54 1006.05 1005.37 1004.60 1004.60 1005.24 1006.11 1006.52 1005.98 1005.28 1004.79 1004.91 1005.70 1006.24 1006.63 1006.53 1006.50 1006.58 1007.13 1007.38 1007.03 1006.75 1006.47 1006.86 1006.49 1005.41 1004.79 1004.58 1004.80 1005.15 1006.45 1007.66 1008.90 1009.59 1009.17 1007.62 1006.08 1004.96 1003.64 1002.75 1001.94 1001.16 1000.89 1000.63 1000.59
1006.74 1006.26 1005.19 1004.67 1004.82 1005.86 1007.01 1006.98 1006.22 1005.51 1005.19 1005.63 1006.26 1006.81 1007.30 1007.51 1007.42 1007.56 1008.04 1007.92 1007.56 1007.15 1006.92 1007.31 1007.77 1006.93 1006.07 1006.38 1006.50 1006.52 1007.27 1008.60 1009.50 1009.85 1009.74 1008.74 1007.10 1005.48 1004.93 1004.12 1003.08 1002.29 1001.81 1001.62 1001.00
1007.81 1007.07 1005.59 1005.13 1006.21 1008.12 1007.97 1007.30 1006.59 1006.25 1005.90 1006.11 1006.61 1007.14 1007.64 1008.06 1008.19 1008.22 1008.29 1008.32 1007.88 1007.92 1008.17 1008.62 1009.07 1008.98 1008.18 1007.66 1007.42 1007.42 1007.95 1008.91 1010.33 1010.80 1010.43 1009.29 1006.82 1005.57 1005.12 1004.47 1004.04 1003.27 1002.58 1001.95 1001.50
1009.50 1008.55 1005.91 1005.78 1007.86 1009.03 1008.41 1007.81 1007.31 1006.96 1007.08 1006.95 1007.51 1007.78 1008.08 1008.63 1008.92 1008.75 1008.78 1008.71 1008.65 1008.70 1009.09 1009.25 1009.96 1010.16 1009.55 1009.00 1008.21 1008.34 1008.46 1009.10 1010.01 1010.64 1010.69 1010.16 1007.21 1006.23 1005.41 1004.91 1004.32 1004.25 1003.38 1002.29 1001.69
1010.40 1010.27 1009.04 1008.58 1009.91 1009.73 1009.38 1008.76 1008.04 1007.58 1007.78 1007.78 1008.17 1008.36 1008.66 1009.25 1009.27 1009.34 1009.25 1009.07 1009.23 1009.44 1009.72 1009.81 1010.81 1010.73 1010.21 1009.44 1009.30 1009.22 1009.04 1009.27 1010.15 1011.05 1010.86 1009.81 1008.21 1007.17 1007.33 1006.71 1005.42 1004.25 1004.01 1003.19 1002.23
1012.09 1013.51 1013.26 1012.06 1011.37 1011.06 1010.21 1009.41 1008.81 1008.36 1008.11 1008.16 1008.79 1008.99 1009.19 1009.55 1009.79 1009.82 1009.76 1009.73 1009.72 1009.96 1010.33 1011.00 1011.68 1011.45 1010.74 1010.16 1009.74 1009.44 1009.40 1009.59 1010.03 1009.97 1010.36 1009.32 1009.56 1009.28 1009.10 1008.11 1007.01 1005.84 1004.39 1003.66 1003.15
1014.16 1014.73 1013.84 1013.20 1012.38 1011.53 1010.85 1010.49 1009.51 1009.03 1008.78 1008.93 1009.10 1009.23 1009.31 1009.58 1009.70 1010.08 1010.22 1010.62 1010.46 1010.84 1011.23 1012.12 1012.54 1012.35 1011.79 1011.01 1010.48 1009.94 1009.37 1009.44 1009.82 1010.04 1010.02 1009.81 1009.72 1009.61 1009.33 1008.56 1007.30 1006.30 1005.29 1004.04 1002.74
1015.21 1015.10 1014.75 1014.07 1013.18 1012.35 1011.77 1010.83 1010.05 1009.59 1009.37 1009.16 1009.18 1009.30 1009.54 1009.56 1009.51 1009.68 1010.15 1010.45 1010.85 1011.40 1012.26 1012.92 1013.33 1013.74 1013.17 1012.07 1011.04 1010.38 1009.48 1009.38 1009.72 1010.10 1010.27 1010.40 1010.57 1010.17 1009.39 1008.82 1008.02 1006.85 1006.20 1005.27 1003.58
Thickness
5770 5772 5772 5773 5775 5778 5779 5781 5783 5784 5784 5786 5789 5789 5790 5793 5797 5797 5801 5831 5834 5839 5835 5825 5818 5815 5811 5800 5803 5797 5767 5757 5768 5776 5786 5801 5795 5807 5808 5796 5804 5807 5795 5799 5795
5771 5773 5774 5774 5775 5778 5781 5782 5784 5785 5786 5787 5789 5789 5793 5797 5799 5803 5841 5842 5840 5837 5826 5815 5805 5809 5794 5794 5795 5784 5768 5776 5797 5797 5790 5801 5801 5801 5793 5789 5791 5794 5797 5800 5794
5774 5775 5776 5777 5777 5778 5781 5784 5786 5786 5787 5789 5790 5792 5795 5798 5798 5826 5850 5843 5837 5831 5827 5823 5816 5806 5789 5792 5792 5790 5780 5799 5807 5813 5812 5804 5805 5806 5790 5779 5790 5787 5787 5792 5791
5777 5777 5778 5779 5780 5780 5782 5784 5787 5788 5788 5790 5792 5794 5796 5797 5791 5844 5852 5842 5835 5831 5826 5819 5811 5794 5787 5785 5798 5783 5801 5803 5811 5821 5817 5807 5814 5802 5802 5800 5808 5804 5802 5796 5790
5779 5780 5781 5782 5782 5782 5783 5784 5787 5788 5788 5790 5792 5795 5797 5799 5816 5854 5850 5838 5831 5826 5818 5809 5804 5797 5791 5793 5794 5787 5801 5814 5822 5823 5822 5824 5815 5813 5809 5814 5812 5809 5803 5797 5794
5781 5782 5783 5785 5785 5784 5785 5786 5788 5788 5788 5790 5792 5794 5798 5797 5851 5853 5847 5831 5827 5823 5819 5814 5810 5809 5801 5797 5795 5805 5807 5811 5822 5825 5828 5820 5815 5820 5821 5818 5811 5806 5805 5801 5801
5782 5784 5785 5787 5788 5788 5787 5787 5788 5789 5789 5790 5793 5795 5798 5813 5848 5846 5841 5830 5829 5826 5815 5819 5821 5811 5807 5801 5814 5809 5800 5814 5822 5827 5820 5827 5805 5805 5821 5817 5811 5804 5804 5804 5802
5783 5786 5787 5788 5789 5788 5788 5788 5789 5790 5791 5791 5794 5795 5800 5842 5846 5838 5837 5829 5831 5830 5821 5823 5824 5812 5809 5811 5808 5800 5801 5783 5819 5830 5831 5825 5791 5819 5822 5815 5811 5811 5805 5803 5801
5784 5787 5788 5789 5789 5789 5788 5788 5789 5790 5791 5792 5791 5794 5801 5838 5826 5832 5834 5822 5826 5827 5827 5828 5820 5803 5804 5794 5785 5788 5778 5787 5800 5828 5828 5822 5805 5826 5827 5817 5810 5812 5812 5807 5802
5783 5786 5788 5788 5788 5788 5787 5786 5786 5788 5789 5791 5794 5788 5810 5815 5831 5828 5832 5827 5815 5814 5810 5806 5797 5788 5787 5784 5767 5781 5784 5791 5788 5814 5822 5811 5812 5822 5822 5821 5814 5813 5814 5811 5807
5783 5785 5787 5788 5787 5787 5787 5786 5780 5778 5786 5793 5798 5803 5815 5831 5840 5822 5826 5818 5812 5800 5781 5794 5780 5774 5801 5812 5799 5790 5785 5783 5799 5818 5811 5808 5812 5821 5824 5821 5815 5812 5814 5813 5815
5783 5785 5786 5786 5786 5785 5782 5784 5790 5795 5778 5801 5798 5802 5813 5826 5810 5813 5825 5803 5795 5776 5782 5775 5769 5803 5806 5800 5792 5800 5786 5786 5803 5817 5808 5810 5812 5827 5826 5827 5829 5822 5817 5817 5816
5782 5785 5786 5785 5784 5782 5785 5792 5803 5800 5771 5790 5798 5801 5811 5819 5807 5809 5818 5807 5797 5779 5777 5768 5797 5813 5803 5797 5786 5788 5788 5797 5794 5808 5813 5807 5807 5823 5830 5834 5833 5830 5828 5826 5823
5781 5784 5786 5785 5782 5788 5787 5803 5801 5797 5745 5773 5791 5807 5815 5819 5806 5833 5834 5818 5798 5784 5786 5780 5802 5801 5791 5788 5791 5774 5810 5806 5800 5788 5766 5808 5758 5808 5821 5824 5829 5828 5826 5828 5827
5781 5784 5787 5786 5792 5790 5803 5804 5804 5795 5721 5790 5797 5829 5818 5807 5816 5822 5831 5820 5791 5790 5784 5783 5797 5788 5785 5793 5799 5795 5814 5800 5801 5785 5784 5783 5771 5800 5818 5809 5822 5833 5833 5837 5838
5785 5786 5789 5788 5788 5808 5813 5810 5801 5747 5738 5781 5803 5799 5798 5808 5811 5819 5819 5825 5815 5795 5793 5791 5809 5801 5799 5809 5806 5815 5797 5787 5774 5768 5750 5779 5774 5786 5809 5826 5834 5843 5844 5846 5847
5792 5793 5790 5799 5802 5815 5815 5801 5747 5731 5780 5771 5781 5787 5791 5783 5795 5793 5795 5795 5779 5767 5766 5781 5793 5806 5814 5801 5805 5795 5765 5736 5744 5735 5749 5772 5772 5794 5817 5834 5838 5847 5854 5858 5859
5799 5801 5801 5804 5810 5813 5806 5773 5743 5768 5771 5785 5778 5784 5774 5778 5785 5779 5777 5766 5783 5774 5748 5751 5755 5800 5816 5804 5793 5784 5770 5735 5735 5725 5742 5772 5768 5800 5822 5838 5850 5851 5861 5863 5861
5800 5801 5801 5808 5810 5806 5783 5741 5751 5767 5785 5781 5781 5761 5759 5770 5776 5773 5761 5753 5770 5778 5763 5750 5766 5800 5807 5808 5803 5785 5764 5773 5744 5738 5729 5755 5782 5806 5827 5833 5842 5842 5846 5844 5852
5793 5796 5798 5809 5809 5798 5763 5748 5764 5778 5786 5780 5759 5760 5751 5756 5763 5762 5756 5766 5763 5776 5780 5769 5753 5784 5791 5799 5795 5789 5782 5754 5732 5736 5741 5742 5761 5760 5793 5810 5823 5838 5841 5847 5849
5789 5783 5797 5805 5803 5776 5750 5754 5771 5783 5785 5774 5761 5755 5754 5752 5753 5751 5744 5758 5763 5767 5771 5766 5750 5760 5776 5760 5759 5759 5749 5740 5733 5722 5718 5718 5742 5781 5787 5798 5808 5825 5832 5834 5841
5773 5763 5792 5797 5764 5735 5745 5762 5771 5771 5775 5773 5766 5761 5756 5748 5749 5747 5744 5750 5763 5762 5755 5753 5731 5728 5749 5755 5758 5764 5752 5732 5713 5728 5709 5716 5739 5794 5789 5801 5806 5814 5822 5828 5836
5750 5753 5786 5788 5740 5735 5747 5760 5763 5761 5756 5764 5756 5756 5753 5744 5741 5744 5742 5753 5754 5752 5745 5748 5724 5704 5720 5735 5750 5741 5748 5735 5716 5708 5712 5708 5738 5777 5785 5792 5801 5800 5811 5824 5831
5742 5742 5748 5751 5731 5738 5741 5742 5749 5759 5752 5751 5750 5749 5743 5732 5731 5735 5736 5747 5745 5746 5745 5740 5713 5717 5706 5725 5728 5730 5740 5740 5721 5701 5706 5710 5739 5754 5756 5765 5782 5795 5799 5811 5822
5720 5708 5708 5713 5724 5723 5731 5738 5739 5737 5747 5746 5741 5739 5736 5727 5724 5726 5730 5730 5738 5736 5734 5723 5710 5717 5723 5725 5726 5728 5727 5725 5716 5717 5711 5731 5719 5730 5736 5746 5760 5777 5792 5799 5809
5702 5697 5699 5704 5707 5722 5716 5721 5729 5733 5739 5734 5731 5735 5734 5728 5728 5721 5725 5718 5720 5724 5723 5707 5700 5707 5712 5714 5715 5716 5720 5719 5714 5721 5710 5718 5720 5722 5729 5739 5750 5763 5774 5787 5803
5682 5686 5691 5695 5700 5709 5707 5717 5723 5727 5734 5736 5734 5729 5727 5732 5735 5734 5727 5723 5723 5718 5703 5697 5684 5679 5683 5686 5696 5698 5718 5716 5706 5701 5699 5693 5698 5706 5711 5721 5732 5745 5755 5767 5789